* Astronomy

Members Login
Username 
 
Password 
    Remember Me  
Post Info TOPIC: Asteroid 2011 EY11


L

Posts: 131433
Date:
Asteroid 2011 EY11
Permalink  
 


Asteroid2011EY11.gif

Ephemeris
Date__(UT)__HR:MN     R.A._(ICRF/J2000.0)_DEC  APmag

2011-Mar-06 23:00 12 10 00.56 +06 42 57.9 15.17
2011-Mar-07 00:00 12 17 04.40 +00 37 08.2 14.93
2011-Mar-07 01:00 12 26 41.23 -07 40 29.6 14.77
2011-Mar-07 02:00 12 40 29.84 -18 57 07.2 14.73
2011-Mar-07 03:00 13 01 52.06 -33 33 55.5 14.87
2011-Mar-07 04:00 13 38 31.91 -50 08 39.1 15.29
2011-Mar-07 05:00 14 49 43.35 -64 55 04.9 15.97
2011-Mar-07 06:00 17 06 25.17 -73 09 52.3 16.80
2011-Mar-07 07:00 19 37 54.10 -72 57 22.4 17.65
2011-Mar-07 08:00 21 03 19.56 -68 59 59.0 18.44
2011-Mar-07 09:00 21 46 10.94 -64 52 53.4 19.14
2011-Mar-07 10:00 22 10 18.31 -61 23 24.8 n.a.
2011-Mar-07 11:00 22 25 27.94 -58 32 28.6 n.a.
2011-Mar-07 12:00 22 35 47.76 -56 13 06.3 n.a.
2011-Mar-07 13:00 22 43 15.65 -54 18 23.6 n.a.
2011-Mar-07 14:00 22 48 53.84 -52 42 50.0 n.a.
2011-Mar-07 15:00 22 53 17.97 -51 22 15.4 n.a.
2011-Mar-07 16:00 22 56 49.84 -50 13 32.3 n.a.
2011-Mar-07 17:00 22 59 43.51 -49 14 19.4 n.a.
2011-Mar-07 18:00 23 02 08.40 -48 22 49.0 n.a.
2011-Mar-07 19:00 23 04 11.12 -47 37 38.2 n.a.
2011-Mar-07 20:00 23 05 56.36 -46 57 42.5 n.a.
2011-Mar-07 21:00 23 07 27.62 -46 22 10.7 n.a.
2011-Mar-07 22:00 23 08 47.49 -45 50 22.0 n.a.
2011-Mar-07 23:00 23 09 57.99 -45 21 43.6 n.a.
2011-Mar-08 00:00 23 11 00.66 -44 55 48.7 n.a.


__________________


L

Posts: 131433
Date:
Permalink  
 

An asteroid only measuring about ten meters in diameter will transit pass our planet in the next 24 hours at around 75,000 km in distance.
Read more

Ed ~ my correction of article


__________________


L

Posts: 131433
Date:
Permalink  
 

Orbital elements:
2011 EY11 Earth MOID = 0.0006 AU
Epoch 2011 Feb. 28.0 TT = JDT 2455620.5 MPC
M 326.32244 (2000.0) P Q
n 0.62655532 Peri. 241.37244 -0.67395712 +0.73744323
a 1.3525804 Node 345.97618 -0.59787692 -0.57963967
e 0.3685331 Incl. 10.52489 -0.43396427 -0.34669199
P 1.57 H 28.3 G 0.15
From 12 observations 2011 Mar. 5.

MPEC 2011 - E29


The 6 - 13 metre wide asteroid 2011 EY11 will make a close pass (0.3 lunar distances, 0.0009 AU), travelling at 11.72 km/second, to the Earth-Moon system on the 7th March, 2011 @ 03:53 UT ±00:59.

See more

The Lunar Distance (LD), the distance between Earth and the Moon, equals 384,401 km, (or 0.00256 AU).


__________________
Page 1 of 1  sorted by
 
Quick Reply

Please log in to post quick replies.



Create your own FREE Forum
Report Abuse
Powered by ActiveBoard